Location: Arroyo Grande
(40.2671°N, 4.2512°W)
Time: 18:34:38
(UTC+00:00)

USA 215 - Pass Details

Date: 03 February 2023
Orbit: 1097 x 1110 km, 123.0° (Epoch: 21 March)

Event Time Altitude Azimuth Distance (km) Brightness Sun altitude
Rises 18:14:20 0° 127° (SE) 3,910 5.8 -7.5°
Reaches altitude 10° 18:16:48 10° 127° (SE) 2,953 5.2 -7.9°
Maximum altitude 18:23:20 81° 41° (NE) 1,115 3.3 -9.1°
Drops below altitude 10° 18:29:52 10° 315° (NW) 2,957 6.0 -10.4°
Sets 18:32:20 0° 315° (NW) 3,916 6.6 -10.8°
